www.pogodaiklimat.ru

Погода и климат >> Архив погоды >> Финляндия >> Маяк Marjaniemi


ПОГОДА на Маяке Marjaniemi

  • Прогноз погоды на Маяке Marjaniemi
  • Монитор погоды на Маяке Marjaniemi

АРХИВ ПОГОДЫ на Маяке Marjaniemi

Время (UTC), дата Ветер
(напр.,м/с)
 
Видим.   Явления Облачность Т
(С)
Тd
(С)
f
(%)
Тe
(С)
Тes
(С)
Комфортность P
(гПа)
Po
(гПа)
Тmin
(С)
Tmax
(С)
R
(мм)
R24
(мм)
S
(см)
22 11.06 С 8-10
{11}
50 км ясно +8.4 0.0 55 +4 +4 1030.6 1029.5
23 11.06 С 7-7
{10}
50 км ясно +8.3 +0.3 57 +4 +4 1031.0 1029.9
00 12.06 С 6-7
{8}
50 км ясно +8.3 +0.1 56 +5 +5 1031.2 1030.1
01 12.06 С 6 50 км ясно +8.1 +0.9 60 +4 +4 1031.1 1030.0
02 12.06 СВ 3 50 км ясно +7.3 +0.5 62 +5 +5 1031.2 1030.1
03 12.06 С 6-7
{7}
50 км ясно +8.7 +2.0 63 +5 +6 1031.6 1030.5
04 12.06 С 6 45 км 1/0
[]
+9.1 +1.0 57 +6 +7 1031.8 1030.7
05 12.06 С 4 45 км ясно +9.8 +1.7 57 +7 +10 1031.8 1030.7
06 12.06 С 5-6
{6}
35 км ясно +9.1 +2.1 62 +6 +9 1032.2 1031.1 +7.1 +9.8
07 12.06 С 4 40 км ясно +9.2 +1.2 57 +7 +12 1032.2 1031.1
08 12.06 С 5-5
{6}
40 км ясно +9.7 +0.4 52 +7 +12 1032.3 1031.2
09 12.06 С 4-5
{5}
40 км ясно +10.7 -0.9 44 +9 +17 1032.3 1031.2
10 12.06 С 5 45 км ясно +10.3 +4.2 66 +8 +14 1031.9 1030.8
11 12.06 С 5 35 км ясно +10.8 +1.1 51 +8 +15 1031.6 1030.5
12 12.06 С 5-6
{6}
40 км ясно +11.0 +1.4 52 +9 +15 1031.5 1030.4
13 12.06 СЗ 6 45 км ясно +10.7 +1.9 54 +8 +12 1031.1 1030.0
14 12.06 С 6 50 км ясно +10.6 +3.1 60 +8 +11 1030.6 1029.5
15 12.06 С 6-6
{7}
50 км ясно +9.9 +2.2 59 +7 +9 1029.9 1028.8
16 12.06 С 6-6
{7}
50 км 1/0
[]
+10.5 +2.9 59 +8 +9 1029.4 1028.3
17 12.06 СВ 6-7
{7}
45 км ясно +11.0 +4.1 62 +8 +9 1029.1 1028.1
18 12.06 СВ 5-7
{7}
50 км ясно +11.2 +2.1 53 +9 +9 1028.8 1027.7 +9.0 +11.5
19 12.06 СВ 4 50 км ясно +10.9 +3.2 59 +9 +9 1028.4 1027.3
20 12.06 СВ 5-7
{7}
50 км 1/0
[]
+9.7 +4.6 71 +7 +7 1028.4 1027.3
21 12.06 В 3-5
{7}
50 км 4/0
[]
+9.2 +4.9 74 +7 +7 1028.4 1027.3
22 12.06 В 4 50 км 9/0
[]
+9.4 +5.6 77 +7 +7 1028.2 1027.1
23 12.06 ЮВ 4 50 км 9/0
[]
+8.6 +3.8 72 +6 +6 1028.0 1026.9
00 13.06 ЮВ 6-8
{8}
50 км 4/0
[]
+8.8 +3.8 71 +5 +5 1028.2 1027.1
01 13.06 ЮВ 5-7
{8}
50 км 9/0
[]
+8.8 +3.6 70 +6 +6 1028.0 1026.9
02 13.06 ЮВ 4-7
{7}
50 км 6/0
[]
+8.9 +3.6 69 +6 +6 1027.7 1026.6
03 13.06 ЮВ 4-6
{6}
50 км 6/0
[]
+10.1 +3.8 65 +8 +8 1027.4 1026.3
04 13.06 ЮВ 5 50 км 9/9
[]
+10.9 +4.4 64 +8 +8 1027.2 1026.2
05 13.06 ЮВ 4-6
{7}
45 км 9/9
[]
+12.1 +4.2 58 +10 +11 1026.9 1025.8
06 13.06 ЮВ 4-6
{6}
50 км 9/9
[]
+12.9 +3.7 54 +11 +12 1026.8 1025.7 +8.4 +12.9
07 13.06 ЮВ 3-7
{7}
45 км 1/1
[]
+14.4 +3.1 47 +14 +20 1026.6 1025.5
08 13.06 ЮВ 3-8
{9}
45 км 4/0
[]
+15.8 +1.9 39 +15 +23 1026.1 1025.0
09 13.06 В 4-8
{9}
40 км 1/0
[]
+16.0 +2.6 41 +15 +23 1025.7 1024.6
10 13.06 В 3 40 км 9/6
[]
+16.1 +2.6 40 +16 +18 1025.3 1024.2
11 13.06 В 3 40 км 4/1
[]
+17.2 +3.1 39 +17 +25 1024.7 1023.7
12 13.06 В 3-7
{8}
35 км 6/1
[]
+18.2 +2.5 35 +18 +25 1024.0 1022.9
13 13.06 СВ 5 45 км 6/6
[]
+15.8 +6.2 53 +15 +17 1023.5 1022.4
14 13.06 СВ 7-7
{10}
45 км 6/6
[]
+15.6 +6.9 56 +14 +15 1022.9 1021.8
15 13.06 СВ 5-7
{8}
45 км 9/9
[]
+16.6 +4.1 43 +16 +16 1022.4 1021.3
16 13.06 СВ 4 50 км 9/9
[]
+16.4 +6.0 50 +16 +16 1022.0 1021.0
17 13.06 СВ 3-4
{7}
50 км 9/0
[]
+15.9 +5.4 50 +16 +16 1021.8 1020.7
18 13.06 В 2-3
{4}
50 км 9/9
[]
+16.0 +6.2 52 +16 +16 1021.6 1020.6 +12.7 +19.3
19 13.06 В 2 50 км 9/9
[]
+15.8 +6.6 54 +16 +16 1021.7 1020.6
20 13.06 В 1 50 км 9/9
[]
+15.0 +7.0 59 +16 +16 1021.5 1020.5
21 13.06 ЮВ 5-6
{6}
50 км 9/9
[]
+14.4 +7.0 61 +13 +13 1021.6 1020.5
22 13.06 ЮВ 4 50 км 9/9
[]
+13.7 +6.3 61 +12 +12 1021.8 1020.7
23 13.06 ЮВ 3-3
{5}
50 км 9/6
[]
+13.1 +5.9 62 +12 +12 1021.3 1020.2
00 14.06 В 2-3
{3}
50 км 4/1
[]
+11.7 +6.5 70 +11 +11 1021.0 1019.9
01 14.06 В 2 50 км ясно +12.1 +5.2 63 +11 +11 1020.7 1019.7
02 14.06 В 3 50 км ясно +11.7 +5.9 68 +10 +10 1020.5 1019.4
03 14.06 ЮВ 3-4
{4}
50 км ясно +12.7 +6.9 68 +11 +12 1020.4 1019.3
04 14.06 ЮВ 2 45 км ясно +13.7 +4.3 53 +13 +16 1020.0 1018.9
05 14.06 В 1-4
{4}
50 км ясно +14.9 +4.8 51 +16 +20 1019.9 1018.8
06 14.06 СВ 2-4
{4}
45 км ясно +14.1 +8.0 67 +14 +20 1019.5 1018.4 +11.3 +16.4
07 14.06 С 3-4
{4}
40 км ясно +13.2 +10.3 83 +12 +19 1019.6 1018.5
08 14.06 С 6 45 км ясно +14.4 +8.4 67 +13 +17 1019.3 1018.3
09 14.06 С 7-7
{8}
40 км ясно +13.4 +8.8 74 +11 +14 1019.0 1017.9
10 14.06 С 6 45 км ясно +13.8 +8.7 71 +12 +17 1018.7 1017.7
11 14.06 С 6 40 км ясно +14.4 +8.2 66 +13 +17 1018.3 1017.2
12 14.06 С 5-6
{7}
40 км ясно +13.9 +8.9 72 +12 +18 1018.0 1016.9
13 14.06 С 6-7
{8}
40 км ясно +14.5 +9.5 72 +13 +16 1017.6 1016.5
14 14.06 С 5 45 км ясно +15.1 +8.3 64 +14 +18 1016.8 1015.7
15 14.06 С 4-5
{6}
45 км ясно +14.9 +8.9 67 +14 +18 1016.0 1014.9
16 14.06 С 6 40 км ясно +15.3 +8.4 63 +14 +15 1015.6 1014.5
17 14.06 С 5 45 км ясно +15.8 +9.1 64 +15 +16 1015.2 1014.2
18 14.06 С 4-5
{5}
45 км ясно +15.1 +9.1 67 +14 +15 1014.4 1013.4 +13.0 +15.8
19 14.06 СВ 5 40 км ясно +15.2 +8.6 65 +14 +14 1014.2 1013.2
20 14.06 СВ 4 50 км ясно +15.1 +6.7 57 +14 +14 1013.9 1012.8
21 14.06 С 4-5
{5}
50 км ясно +13.8 +7.7 67 +12 +12 1013.8 1012.8
22 14.06 С 3-4
{5}
50 км ясно +13.1 +9.9 81 +12 +12 1013.8 1012.8
23 14.06 С 3 50 км ясно +13.0 +10.4 84 +12 +12 1013.8 1012.7
00 15.06 З 2-3
{4}
50 км ясно +11.5 +9.6 88 +10 +10 1013.8 1012.8
01 15.06 СЗ 2 50 км ясно +12.6 +9.8 83 +12 +12 1013.8 1012.7
02 15.06 СЗ 3-3
{4}
50 км ясно +12.3 +9.8 85 +11 +11 1013.9 1012.8
03 15.06 С 5-6
{7}
50 км ясно +13.0 +9.8 81 +11 +11 1013.8 1012.8
04 15.06 СЗ 2 40 км ясно +13.3 +9.5 78 +13 +15 1013.8 1012.7
05 15.06 СЗ 2 45 км ясно +13.4 +9.3 76 +13 +17 1014.1 1013.0
06 15.06 СЗ 3-4
{5}
35 км ясно +13.4 +9.0 75 +12 +17 1014.4 1013.3 +11.5 +15.4
07 15.06 С 4 35 км ясно +13.8 +10.7 82 +12 +18 1014.7 1013.6
08 15.06 С 5 35 км ясно +14.1 +11.0 82 +12 +18 1015.0 1014.0
09 15.06 С 5-5
{5}
35 км ясно +15.6 +12.2 80 +14 +20 1015.2 1014.1
10 15.06 СЗ 5-6
{6}
35 км ясно +14.2 +10.9 81 +12 +19 1015.4 1014.3
11 15.06 СЗ 6 35 км ясно +14.1 +10.5 79 +12 +17 1015.5 1014.5
12 15.06 СЗ 7-7
{7}
40 км ясно +14.3 +10.5 78 +12 +15 1015.6 1014.5
13 15.06 СЗ 6 45 км ясно +14.5 +10.8 78 +13 +16 1015.5 1014.5
14 15.06 СЗ 6-7
{7}
45 км ясно +14.6 +10.5 76 +13 +16 1015.6 1014.5
15 15.06 З 5-6
{7}
40 км ясно +15.2 +10.6 74 +14 +17 1015.5 1014.4
16 15.06 З 5 50 км ясно +15.2 +10.7 74 +14 +16 1015.3 1014.3
17 15.06 З 5 35 км ясно +14.3 +10.2 76 +13 +14 1015.0 1013.9
18 15.06 З 6-7
{7}
40 км ясно +13.9 +9.8 76 +12 +12 1014.6 1013.5 +13.3 +15.7
19 15.06 ЮЗ 6 50 км ясно +12.8 +10.0 83 +10 +10 1014.7 1013.6
20 15.06 ЮЗ 6 50 км ясно +12.7 +9.4 80 +10 +10 1014.4 1013.3
21 15.06 ЮЗ 4-5
{8}
50 км ясно +12.1 +9.6 85 +10 +10 1014.5 1013.5
22 15.06 Ю 4 50 км ясно +11.9 +9.2 84 +10 +10 1014.5 1013.4
23 15.06 Ю 5-7
{7}
50 км ясно +11.9 +9.0 82 +9 +9 1014.2 1013.1
00 16.06 Ю 6-7
{8}
50 км ясно +11.5 +9.2 86 +9 +9 1013.9 1012.8
01 16.06 Ю 6 50 км ясно +11.5 +9.6 88 +8 +8 1013.4 1012.3
02 16.06 Ю 6 50 км ясно +11.7 +9.7 88 +9 +9 1012.9 1011.8
03 16.06 Ю 6-7
{9}
50 км ясно +12.0 +9.8 86 +9 +10 1012.6 1011.6
04 16.06 Ю 8 45 км ясно +11.9 +9.5 85 +9 +9 1012.5 1011.4
05 16.06 Ю 7-9
{9}
40 км ясно +12.1 +9.6 85 +9 +10 1012.5 1011.4
06 16.06 Ю 9-10
{10}
50 км ясно +12.0 +9.3 84 +8 +9 1012.4 1011.3 +11.3 +13.9
07 16.06 Ю 8-9
{10}
40 км ясно +11.7 +9.2 85 +8 +10 1012.3 1011.2
08 16.06 Ю 8 30 км ясно +11.8 +9.3 85 +8 +10 1012.3 1011.3
09 16.06 Ю 7-8
{9}
35 км ясно +11.8 +9.1 84 +9 +12 1012.7 1011.6
10 16.06 Ю 7 30 км ясно +11.9 +9.3 84 +9 +12 1012.3 1011.2
11 16.06 Ю 7 30 км ясно +11.8 +9.2 84 +9 +12 1012.4 1011.3
12 16.06 Ю 6-7
{7}
40 км ясно +12.3 +9.6 84 +10 +14 1012.3 1011.2
13 16.06 Ю 5-6
{7}
40 км ясно +12.8 +10.2 84 +11 +16 1012.1 1011.1
14 16.06 Ю 5-6
{6}
35 км ясно +12.9 +9.9 82 +11 +15 1011.8 1010.7
15 16.06 Ю 6-7
{7}
40 км ясно +12.5 +9.8 84 +10 +12 1011.6 1010.5
16 16.06 Ю 6-7
{7}
50 км ясно +12.7 +10.0 84 +10 +12 1011.4 1010.4
17 16.06 Ю 6 50 км 6/6 2000 м
[]
+12.1 +9.9 86 +9 +10 1011.0 1009.9
18 16.06 Ю 7-8
{8}
50 км 4/4 2000 м
[]
+12.0 +10.1 88 +9 +9 1010.8 1009.7 +11.3 +13.4
19 16.06 Ю 6 50 км ясно +12.2 +10.4 89 +9 +10 1010.7 1009.6
20 16.06 Ю 6-9
{9}
45 км ясно +12.0 +10.0 88 +9 +9 1010.4 1009.4
21 16.06 Ю 6-8
{9}
50 км 1/0
[]
+12.2 +10.0 86 +9 +9 1010.2 1009.1
22 16.06 Ю 6 50 км ясно +12.2 +10.1 87 +9 +9 1009.9 1008.8
23 16.06 Ю 8 50 км 4/4
[]
+12.3 +10.2 87 +9 +9 1009.7 1008.7
00 17.06 Ю 7-9
{10}
50 км 10/10
[]
+11.7 +9.3 85 +9 +9 1009.4 1008.3
01 17.06 Ю 6 50 км 9/9
[]
+11.2 +9.1 87 +8 +8 1009.0 1007.9
02 17.06 Ю 7-9
{9}
50 км 9/9
[]
+11.7 +9.2 85 +9 +9 1008.7 1007.6
03 17.06 Ю 7-9
{10}
50 км 9/9 2000 м
[]
+12.3 +9.5 83 +9 +9 1008.7 1007.6
04 17.06 Ю 8 50 км 9/9
[]
+12.4 +9.6 83 +9 +9 1008.4 1007.3
05 17.06 Ю 10-11
{12}
45 км 9/0
[]
+12.6 +10.1 85 +9 +9 1008.3 1007.2
06 17.06 Ю 9-11
{12}
40 км ясно +12.4 +9.6 83 +9 +10 1008.3 1007.2 +11.2 +12.7
07 17.06 Ю 9 45 км 1/1
[]
+12.3 +9.6 84 +9 +10 1008.2 1007.2
08 17.06 Ю 9 40 км ясно +12.7 +9.7 82 +9 +10 1008.3 1007.3
09 17.06 Ю 9-11
{11}
35 км ясно +13.6 +10.0 79 +11 +12 1008.0 1006.9
10 17.06 Ю 7 40 км 4/4
[]
+13.7 +10.1 79 +11 +13 1008.3 1007.3
11 17.06 Ю 6 40 км 9/9
[]
+13.0 +10.0 82 +11 +11 1008.1 1007.1
12 17.06 ЮЗ 6-8
{8}
35 км 1/0
[]
+14.4 +10.6 78 +13 +17 1008.0 1006.9
13 17.06 ЮЗ 4 35 км 1/1
[]
+15.1 +11.1 77 +14 +20 1007.6 1006.6
14 17.06 Ю 3-5
{6}
40 км ясно +15.2 +10.9 75 +15 +21 1007.2 1006.1
15 17.06 Ю 7-9
{9}
35 км 1/0
[]
+15.4 +11.2 76 +14 +15 1006.7 1005.7
16 17.06 Ю 7 30 км ясно +15.1 +10.7 75 +13 +14 1006.2 1005.2
17 17.06 Ю 9 35 км ясно +13.9 +10.7 81 +11 +11 1006.4 1005.3
18 17.06 Ю 8-9
{10}
30 км {ливн. осадки, дождь} 9/6 1500 м
[]
+11.9 +10.4 91 +8 +8 1006.3 1005.2 +11.9 +15.8
19 17.06 Ю 9-12
{12}
13 км слаб. дождь 9/6 1500 м
[]
+11.1 +10.1 94 +7 +7 1006.3 1005.2
20 17.06 ЮЗ 4 10 км ливневой дождь 9/6 1500 м
[]
+11.2 +10.5 95 +9 +9 1006.6 1005.5
21 17.06 С 3-4
{5}
13 км слаб. дождь 9/4 600 м
[]
+11.8 +11.4 97 +10 +10 1005.6 1004.5
22 17.06 Ю 6 19 км в посл. час дождь 9/1 100 м
[]
+11.1 +10.6 97 +8 +8 1006.2 1005.1
23 17.06 ЮЗ 6 30 км 9/9 2000 м
[]
+11.9 +10.7 92 +9 +9 1006.5 1005.4
00 18.06 ЮЗ 6-8
{9}
22 км в посл. час морось {ливн. осадки, дождь} 9/6 50 м
[]
+12.2 +11.8 97 +9 +9 1006.4 1005.3
01 18.06 ЮЗ 4-6
{7}
27 км 10/10 2000 м
[]
+12.1 +11.7 97 +10 +10 1006.2 1005.2
02 18.06 ЮЗ 5 40 км 9/9
[]
+12.3 +11.4 94 +10 +10 1006.4 1005.4
03 18.06 ЮЗ 4-6
{6}
45 км в посл. час морось {ливн. осадки, дождь} 6/0
[]
+12.1 +11.1 94 +10 +10 1006.5 1005.4
04 18.06 Ю 4 40 км 4/4 2000 м
[]
+12.5 +11.3 92 +10 +11 1006.5 1005.4
05 18.06 Ю 6 35 км ясно +12.2 +11.0 92 +9 +11 1006.8 1005.7
06 18.06 Ю 6-7
{8}
35 км {ливн. осадки, дождь} ясно +12.1 +10.6 91 +9 +12 1007.2 1006.1 +10.5 +12.6
07 18.06 Ю 5-6
{7}
35 км 1/0
[]
+12.8 +10.6 86 +11 +15 1007.5 1006.4
08 18.06 Ю 7-7
{8}
30 км ясно +12.6 +10.2 85 +10 +13 1007.9 1006.8
09 18.06 Ю 7-8
{8}
30 км ясно +13.3 +10.6 84 +11 +14 1008.2 1007.2
10 18.06 Ю 7 35 км ясно +13.9 +11.1 83 +12 +15 1008.2 1007.2
11 18.06 Ю 9-10
{11}
30 км ясно +13.9 +11.2 84 +11 +12 1008.3 1007.3
12 18.06 Ю 8-10
{11}
30 км ясно +14.0 +11.1 83 +11 +13 1008.3 1007.3
13 18.06 Ю 9 35 км ясно +14.1 +10.8 81 +11 +12 1008.3 1007.2
14 18.06 Ю 11 45 км ясно +14.3 +11.0 81 +11 +12 1007.7 1006.6
15 18.06 Ю 11-13
{13}
35 км ясно +14.3 +10.9 80 +11 +12 1007.4 1006.3
16 18.06 Ю 13-15
{16}
40 км ясно +13.3 +10.8 85 +10 +10 1007.1 1006.0
17 18.06 Ю 13-14
{15}
35 км 1/0
[]
+13.0 +10.3 84 +9 +9 1006.7 1005.7
18 18.06 ЮЗ 13-16
{16}
40 км 1/1 2000 м
[]
+12.6 +10.2 85 +9 +9 1006.5 1005.5 +12.1 +14.5
19 18.06 ЮЗ 11 40 км ясно +12.3 +10.1 86 +9 +9 1006.5 1005.5
20 18.06 ЮЗ 10 40 км 9/9
[]
+11.9 +9.9 88 +8 +8 1006.5 1005.5
21 18.06 Ю 12-13
{15}
45 км 9/9
[]
+15.3 +11.0 76 +13 +13 1006.1 1005.0
22 18.06 ЮЗ 10 45 км 4/4 2000 м
[]
+11.7 +9.7 88 +8 +8 1006.9 1005.9

 

Местоположение метеостанции Маяк Marjaniemi (Финляндия): широта 65.04 долгота 24.56 высота над уровнем моря 7 м.

В архиве по умолчанию представлена погода на Маяке Marjaniemi за последнюю неделю. Архивные данные за месяц целиком и за предыдущие месяцы, начиная с января 2011 года, Вы можете получить, выбрав интересующий диапазон дат из раскрывающегося списка и нажав кнопку "Ввод!".


*Определитесь, кто Вы:
робот инопланетянин человек

Внимание! Время в таблицах - всемирное. Для получения местного времени необходимо прибавить поправку, которая равна 1 ч.

Смотрите также архив погоды в соседних городах и на ближайших метеорологических станциях:

Погода в Хайлуото (Финляндия) (8 км)
Погода на Гуфускаларе (Исландия) (33 км)
Погода в Оулу (Финляндия) (39 км)
Погода в Оулунсало Пеллонпаа (Финляндия) (40 км)
Погода в Раахе Лапалуто (Финляндия) (42 км)
Погода в Кеми (Финляндия) (44 км)
Погода в Ревонлахти (Финляндия) (47 км)
Погода на Маяке Nahkiainen (Финляндия) (56 км)
Погода в Кеми Айос (Финляндия) (70 км)
Погода в Кеми аэропорту (Финляндия) (82 км)

Пояснения к столбцам:

Ветер - указаны скорость ветра в м/с - средняя за 10 мин, порывы в срок и между сроками (в фигурных скобках) и направление, откуда дует ветер: С - северный, СВ - северо-восточный, В - восточный, ЮВ - юго-восточный, Ю - южный, ЮЗ - юго-западный, З - западный, СЗ - северо-западный.
Видимость - горизонтальная дальность видимости в метрах или километрах. При видимости от 1 до 10 км при отсутствии осадков обычно наблюдается дымка, при ухудшении видимости до 1 км и менее - туман. В сухую погоду видимость может ухудшаться дымом, пылью или мглою.
Явления - указаны атмосферные явления, наблюдавшиеся в срок или в последний час перед сроком; фигурными скобками обозначены явления, наблюдавшиеся между сроками (за 1-3 часа до срока); квадратными скобками обозначены град или гололедные отложения с указанием их диаметра в мм.
Облачность - указаны через наклонную черту общая и нижняя облачность в баллах и высота нижней границы облаков в метрах; квадратными скобками обозначены формы облаков: Ci - перистые, Cs - перисто-слоистые, Cc - перисто-кучевые, Ac - высококучевые, As - высокослоистые, Sc - слоисто-кучевые, Ns - слоисто-дождевые, Cu - кучевые, Cb - кучево-дождевые. Подробнее классификацию облаков см. в Атласе облаков (PDF).
T - Температура воздуха - температура, измеренная на высоте 2 м над землей.
Td - Температура точки росы - температура, при понижении до которой содержащийся в воздухе водяной пар достигнет насыщения.
f - Относительная влажность воздуха - влажноcть воздуха, измеренная на высоте 2 м над землей.
Te - Эффективная температура - температура, которую ощущает одетый по сезону человек в тени. Характеристика душности погоды. При расчете учитывается влияние влажности воздуха и скорости ветра на теплоощущения человека.
Tes - Эффективная температура на солнце - температура, которую ощущает человек, с поправкой на солнечный нагрев. Характеристика знойности погоды. Зависит от высоты солнца над горизонтом, облачности и скорости ветра. Ночью, в пасмурную погоду, а также при ветре 12 м/с и более поправка равна нулю.
P - Атмосферное давление - приведенное к уровню моря атмосферное давление.
Po - Атмосферное давление - измеренное на уровне метеостанции атмосферное давление.
Tmin - Минимальная температура - минимум температуры воздуха на высоте 2 м над землей.
Tmax - Максимальная температура - максимум температуры воздуха на высоте 2 м над землей.
R - Количество осадков - Количество выпавших осадков за период времени, мм. При наведении курсора мыши на число - период времени, за который выпало указанное количество осадков.
R24 - Количество осадков - Количество выпавших осадков за 24 часа, мм.
S - Снежный покров - Высота снежного покрова, см. При наведении курсора мыши на число - состояние снежного покрова и степень покрытия местности в баллах.